Previsão horária em Brasília

Hoje, 18 Abril, Domingo

Tempo Temperatura Precipitação Vento Pressão Humidade
00:00 +20°C° 0 mm 1 m/s 665 mmHg 68%
01:00 +19°C° 0 mm 1 m/s 665 mmHg 69%
02:00 +17°C° 0 mm 0 m/s 665 mmHg 69%
03:00 +17°C° 0 mm 0 m/s 664 mmHg 71%
04:00 +17°C° 0 mm 0 m/s 664 mmHg 72%
05:00 +17°C° 0 mm 0 m/s 664 mmHg 73%
06:00 +16°C° 0 mm 0 m/s 665 mmHg 74%
07:00 +18°C° 0 mm 0 m/s 665 mmHg 70%
08:00 +20°C° 0 mm 0 m/s 666 mmHg 65%
09:00 +22°C° 0 mm 0 m/s 667 mmHg 60%
10:00 +25°C° 0.3 mm 1 m/s 667 mmHg 58%
11:00 +26°C° 0.3 mm 1 m/s 667 mmHg 55%
12:00 +27°C° 0.3 mm 2 m/s 667 mmHg 53%
13:00 +27°C° 0.4 mm 2 m/s 666 mmHg 55%
14:00 +26°C° 0.4 mm 2 m/s 665 mmHg 58%
15:00 +26°C° 0.4 mm 2 m/s 665 mmHg 60%
16:00 +24°C° 1.1 mm 1 m/s 664 mmHg 67%
17:00 +23°C° 1.1 mm 1 m/s 664 mmHg 74%
18:00 +21°C° 1.1 mm 1 m/s 664 mmHg 81%
19:00 +21°C° 0.7 mm 1 m/s 664 mmHg 82%
20:00 +20°C° 0.7 mm 1 m/s 664 mmHg 84%
21:00 +20°C° 0.7 mm 1 m/s 664 mmHg 85%
22:00 +20°C° 0 mm 1 m/s 665 mmHg 85%
23:00 +19°C° 0 mm 1 m/s 665 mmHg 85%

Amanhã, 19 Abril, Segunda-feira

Tempo Temperatura Precipitação Vento Pressão Humidade
00:00 +19°C° 0 mm 1 m/s 665 mmHg 85%
01:00 +19°C° 0 mm 1 m/s 664 mmHg 86%
02:00 +19°C° 0 mm 1 m/s 664 mmHg 86%
03:00 +16°C° 0 mm 0 m/s 664 mmHg 86%
04:00 +16°C° 0 mm 0 m/s 664 mmHg 86%
05:00 +16°C° 0 mm 0 m/s 664 mmHg 86%
06:00 +16°C° 0 mm 0 m/s 664 mmHg 87%
07:00 +18°C° 0 mm 0 m/s 665 mmHg 81%
08:00 +20°C° 0 mm 0 m/s 666 mmHg 75%
09:00 +22°C° 0 mm 0 m/s 666 mmHg 70%
10:00 +25°C° 0.1 mm 1 m/s 667 mmHg 63%
11:00 +27°C° 0.1 mm 1 m/s 667 mmHg 56%
12:00 +28°C° 0.1 mm 1 m/s 667 mmHg 49%
13:00 +28°C° 0 mm 1 m/s 666 mmHg 51%
14:00 +27°C° 0 mm 1 m/s 665 mmHg 52%
15:00 +27°C° 0 mm 1 m/s 665 mmHg 53%
16:00 +26°C° 0 mm 1 m/s 664 mmHg 58%
17:00 +24°C° 0 mm 1 m/s 664 mmHg 64%
18:00 +23°C° 0 mm 1 m/s 664 mmHg 69%
19:00 +22°C° 0.1 mm 1 m/s 664 mmHg 72%
20:00 +22°C° 0.1 mm 1 m/s 665 mmHg 75%
21:00 +19°C° 0.1 mm 0 m/s 665 mmHg 78%
22:00 +19°C° 0 mm 0 m/s 665 mmHg 79%
23:00 +18°C° 0 mm 0 m/s 665 mmHg 79%

Depois de amanhã, 20 Abril, Terça-feira

Tempo Temperatura Precipitação Vento Pressão Humidade
00:00 +18°C° 0 mm 0 m/s 665 mmHg 80%
01:00 +18°C° 0 mm 0 m/s 664 mmHg 81%
02:00 +18°C° 0 mm 0 m/s 664 mmHg 81%
03:00 +18°C° 0 mm 0 m/s 664 mmHg 82%
04:00 +17°C° 0 mm 0 m/s 664 mmHg 82%
05:00 +19°C° 0 mm 1 m/s 664 mmHg 83%
06:00 +19°C° 0 mm 1 m/s 664 mmHg 83%
07:00 +20°C° 0 mm 1 m/s 665 mmHg 77%
08:00 +22°C° 0 mm 1 m/s 666 mmHg 71%
09:00 +23°C° 0 mm 1 m/s 666 mmHg 65%
10:00 +24°C° 0 mm 1 m/s 666 mmHg 59%
11:00 +25°C° 0 mm 1 m/s 666 mmHg 54%
12:00 +27°C° 0 mm 1 m/s 667 mmHg 48%
13:00 +27°C° 0 mm 1 m/s 666 mmHg 48%
14:00 +27°C° 0 mm 1 m/s 665 mmHg 48%
15:00 +27°C° 0 mm 1 m/s 665 mmHg 48%
16:00 +26°C° 0 mm 1 m/s 665 mmHg 54%
17:00 +24°C° 0 mm 1 m/s 664 mmHg 61%
18:00 +23°C° 0 mm 1 m/s 664 mmHg 68%
19:00 +22°C° 0 mm 1 m/s 664 mmHg 70%
20:00 +19°C° 0 mm 0 m/s 665 mmHg 72%
21:00 +19°C° 0 mm 0 m/s 665 mmHg 74%
22:00 +18°C° 0 mm 0 m/s 665 mmHg 74%
23:00 +18°C° 0 mm 0 m/s 665 mmHg 74%

21 Abril, Quarta-feira

Tempo Temperatura Precipitação Vento Pressão Humidade
00:00 +18°C° 0 mm 0 m/s 665 mmHg 75%
01:00 +19°C° 0 mm 1 m/s 664 mmHg 77%
02:00 +19°C° 0 mm 1 m/s 664 mmHg 79%
03:00 +18°C° 0 mm 1 m/s 664 mmHg 81%
04:00 +16°C° 0 mm 0 m/s 664 mmHg 80%
05:00 +16°C° 0 mm 0 m/s 664 mmHg 79%
06:00 +16°C° 0 mm 0 m/s 664 mmHg 78%
07:00 +18°C° 0 mm 0 m/s 665 mmHg 70%
08:00 +20°C° 0 mm 0 m/s 666 mmHg 62%
09:00 +22°C° 0 mm 0 m/s 667 mmHg 54%
10:00 +23°C° 0 mm 0 m/s 667 mmHg 50%
11:00 +25°C° 0 mm 0 m/s 667 mmHg 45%
12:00 +26°C° 0 mm 0 m/s 667 mmHg 41%
13:00 +28°C° 0 mm 1 m/s 666 mmHg 41%
14:00 +28°C° 0 mm 1 m/s 665 mmHg 40%
15:00 +28°C° 0 mm 2 m/s 665 mmHg 40%
16:00 +26°C° 0 mm 2 m/s 665 mmHg 47%
17:00 +25°C° 0 mm 1 m/s 665 mmHg 54%
18:00 +23°C° 0 mm 1 m/s 665 mmHg 61%
19:00 +23°C° 0 mm 1 m/s 665 mmHg 62%
20:00 +22°C° 0 mm 1 m/s 666 mmHg 63%
21:00 +20°C° 0 mm 0 m/s 666 mmHg 65%
22:00 +19°C° 0 mm 0 m/s 666 mmHg 68%
23:00 +19°C° 0 mm 0 m/s 666 mmHg 70%

22 Abril, Quinta-feira

Tempo Temperatura Precipitação Vento Pressão Humidade
00:00 +18°C° 0 mm 0 m/s 666 mmHg 73%
01:00 +17°C° 0 mm 0 m/s 665 mmHg 75%
02:00 +17°C° 0 mm 0 m/s 665 mmHg 76%
03:00 +17°C° 0 mm 0 m/s 664 mmHg 77%
04:00 +16°C° 0 mm 0 m/s 664 mmHg 77%
05:00 +16°C° 0 mm 0 m/s 664 mmHg 78%
06:00 +15°C° 0 mm 0 m/s 665 mmHg 78%
07:00 +18°C° 0 mm 0 m/s 666 mmHg 71%
08:00 +20°C° 0 mm 0 m/s 666 mmHg 63%
09:00 +22°C° 0 mm 0 m/s 667 mmHg 56%
10:00 +23°C° 0 mm 0 m/s 667 mmHg 50%
11:00 +25°C° 0 mm 0 m/s 668 mmHg 43%
12:00 +28°C° 0 mm 1 m/s 668 mmHg 37%
13:00 +28°C° 0 mm 1 m/s 667 mmHg 36%
14:00 +28°C° 0 mm 1 m/s 666 mmHg 36%
15:00 +28°C° 0 mm 1 m/s 666 mmHg 36%
16:00 +26°C° 0 mm 1 m/s 665 mmHg 43%
17:00 +25°C° 0 mm 1 m/s 665 mmHg 49%
18:00 +23°C° 0 mm 1 m/s 665 mmHg 56%
19:00 +22°C° 0 mm 1 m/s 665 mmHg 57%
20:00 +21°C° 0 mm 1 m/s 665 mmHg 58%
21:00 +20°C° 0 mm 1 m/s 666 mmHg 60%
22:00 +20°C° 0 mm 1 m/s 666 mmHg 59%
23:00 +20°C° 0 mm 1 m/s 666 mmHg 59%

23 Abril, Sexta-feira

Tempo Temperatura Precipitação Vento Pressão Humidade
00:00 +20°C° 0 mm 1 m/s 666 mmHg 58%
01:00 +19°C° 0 mm 1 m/s 666 mmHg 58%
02:00 +17°C° 0 mm 0 m/s 665 mmHg 57%
03:00 +17°C° 0 mm 0 m/s 665 mmHg 57%
04:00 +17°C° 0 mm 0 m/s 665 mmHg 57%
05:00 +16°C° 0 mm 0 m/s 665 mmHg 56%
06:00 +16°C° 0 mm 0 m/s 665 mmHg 56%
07:00 +18°C° 0 mm 0 m/s 666 mmHg 53%
08:00 +22°C° 0 mm 1 m/s 667 mmHg 50%
09:00 +24°C° 0 mm 1 m/s 668 mmHg 46%
10:00 +26°C° 0 mm 1 m/s 668 mmHg 43%
11:00 +27°C° 0 mm 1 m/s 668 mmHg 39%
12:00 +29°C° 0 mm 1 m/s 668 mmHg 35%
13:00 +29°C° 0 mm 1 m/s 667 mmHg 35%
14:00 +29°C° 0 mm 1 m/s 667 mmHg 34%
15:00 +29°C° 0 mm 1 m/s 666 mmHg 33%
16:00 +27°C° 0 mm 1 m/s 666 mmHg 41%
17:00 +25°C° 0 mm 1 m/s 665 mmHg 48%
18:00 +23°C° 0 mm 1 m/s 665 mmHg 55%
19:00 +22°C° 0 mm 1 m/s 665 mmHg 57%
20:00 +20°C° 0 mm 0 m/s 665 mmHg 58%
21:00 +19°C° 0 mm 0 m/s 666 mmHg 60%
22:00 +19°C° 0 mm 0 m/s 666 mmHg 60%
23:00 +18°C° 0 mm 0 m/s 666 mmHg 60%
Mostrar mais